Clinton, MO

8:00 AM CDT on June 23, 2017 (GMT -0500)
Clinton Memorial

Weather History for KGLY - May, 2014

Change the Weather History Date:

Sunday, May 11, 2014

  Actual Average (KSZL) Record (KSZL)
Temperature  
Mean Temperature 76 °F -  
Max Temperature 84 °F 72 °F 87 °F (2011)
Min Temperature 68 °F 53 °F 43 °F (2013)
Cooling Degree Days 11    
Growing Degree Days 26 (Base 50)    
Moisture  
Dew Point 66 °F    
Average Humidity 68    
Maximum Humidity 94    
Minimum Humidity 51    
Precipitation  
Precipitation 0.00 in - - ()
Sea Level Pressure  
Sea Level Pressure 29.80 in    
Wind  
Wind Speed 11 mph (SSE)    
Max Wind Speed 22 mph    
Max Gust Speed 28 mph    
Visibility 10 miles    
Events      
Averages and records for this station are not official NWS values.
T = Trace of Precipitation, MM = Missing Value Source: NWS Daily Summary

Daily Weather History Graph

Daily Weather History Graph

Search for Another Location

Airport or City:

Trip Planner

Search our weather history database for the weather conditions in past years. The results will help you decide how hot, cold, wet, or windy it might be!

Date:

Astronomy

May. 11, 2014 Rise Set
Actual Time 6:07 AM CDT 8:15 PM CDT
Civil Twilight 5:37 AM CDT 8:45 PM CDT
Nautical Twilight 5:01 AM CDT 9:21 PM CDT
Astronomical Twilight 4:22 AM CDT 10:00 PM CDT
Moon 5:14 PM CDT (5/11) 4:09 AM CDT (5/11)
Length of Visible Light 15h 07m
Length of Day
14h 08m
Waxing Gibbous, 89% of the Moon is Illuminated
May 11
Waxing Gibbous
May 14
Full
May 21
Last Quarter
May 28
New
Jun 5
First Quarter

Hourly Weather History & Observations

Time (CDT) Temp. Heat Index Dew Point Humidity Pressure Visibility Wind Dir Wind Speed Gust Speed Precip Events Conditions
12:15 AM 73.4 °F - 64.4 °F 73% 29.83 in 10.0 mi South 6.9 mph - N/A   Clear
12:35 AM 73.4 °F - 62.6 °F 69% 29.82 in 10.0 mi SSE 6.9 mph - N/A   Clear
12:55 AM 73.4 °F - 64.4 °F 73% 29.83 in 10.0 mi South 8.1 mph - N/A   Clear
1:15 AM 73.4 °F - 64.4 °F 73% 29.83 in 10.0 mi SSE 8.1 mph 16.1 mph N/A   Clear
1:35 AM 73.4 °F - 64.4 °F 73% 29.83 in 10.0 mi SSE 8.1 mph - N/A   Clear
1:55 AM 73.4 °F - 64.4 °F 73% 29.84 in 10.0 mi SE 4.6 mph - N/A   Clear
2:15 AM 73.4 °F - 64.4 °F 73% 29.84 in 10.0 mi SSE 4.6 mph - N/A   Partly Cloudy
2:35 AM 71.6 °F - 64.4 °F 78% 29.85 in 10.0 mi SSE 5.8 mph - N/A   Partly Cloudy
2:55 AM 71.6 °F - 64.4 °F 78% 29.85 in 10.0 mi SSE 5.8 mph - N/A   Clear
3:15 AM 71.6 °F - 66.2 °F 83% 29.86 in 10.0 mi South 8.1 mph - N/A   Clear
3:35 AM 71.6 °F - 66.2 °F 83% 29.86 in 10.0 mi South 6.9 mph - N/A   Clear
4:15 AM 71.6 °F - 66.2 °F 83% 29.85 in 10.0 mi SSE 9.2 mph - N/A   Partly Cloudy
4:35 AM 71.6 °F - 66.2 °F 83% 29.84 in 10.0 mi SSE 11.5 mph - N/A   Clear
4:55 AM 69.8 °F - 66.2 °F 88% 29.85 in 10.0 mi SSE 10.4 mph - N/A   Clear
5:15 AM 69.8 °F - 66.2 °F 88% 29.84 in 10.0 mi SSE 10.4 mph - N/A   Clear
5:35 AM 69.8 °F - 66.2 °F 88% 29.84 in 10.0 mi SE 10.4 mph - N/A   Scattered Clouds
5:55 AM 69.8 °F - 66.2 °F 88% 29.84 in 10.0 mi SE 8.1 mph - N/A   Scattered Clouds
6:15 AM 69.8 °F - 66.2 °F 88% 29.84 in 9.0 mi ESE 5.8 mph - N/A   Clear
6:35 AM 68.0 °F - 66.2 °F 94% 29.85 in 8.0 mi SE 9.2 mph - N/A   Partly Cloudy
6:55 AM 69.8 °F - 66.2 °F 88% 29.85 in 8.0 mi SE 9.2 mph - N/A   Mostly Cloudy
7:15 AM 69.8 °F - 66.2 °F 88% 29.85 in 9.0 mi SE 10.4 mph - N/A   Mostly Cloudy
7:35 AM 69.8 °F - 66.2 °F 88% 29.85 in 9.0 mi SE 11.5 mph 18.4 mph N/A   Scattered Clouds
7:55 AM 71.6 °F - 66.2 °F 83% 29.85 in 9.0 mi SE 10.4 mph - N/A   Clear
8:15 AM 73.4 °F - 66.2 °F 78% 29.84 in 9.0 mi SSE 15.0 mph 18.4 mph N/A   Clear
8:35 AM 73.4 °F - 66.2 °F 78% 29.84 in 9.0 mi SE 12.7 mph 18.4 mph N/A   Clear
8:55 AM 75.2 °F - 68.0 °F 78% 29.84 in 9.0 mi SSE 13.8 mph - N/A   Clear
9:15 AM 75.2 °F - 68.0 °F 78% 29.84 in 10.0 mi SSE 15.0 mph - N/A   Clear
9:35 AM 78.8 °F - 68.0 °F 69% 29.84 in 9.0 mi SSE 16.1 mph 24.2 mph N/A   Partly Cloudy
9:55 AM 78.8 °F - 68.0 °F 69% 29.84 in 9.0 mi South 21.9 mph 26.5 mph N/A   Scattered Clouds
10:15 AM 78.8 °F - 68.0 °F 69% 29.83 in 10.0 mi SSE 18.4 mph - N/A   Scattered Clouds
10:35 AM 78.8 °F - 69.8 °F 74% 29.83 in 10.0 mi SSE 16.1 mph 20.7 mph N/A   Scattered Clouds
10:55 AM 80.6 °F 83.2 °F 68.0 °F 65% 29.82 in 9.0 mi South 19.6 mph 23.0 mph N/A   Scattered Clouds
11:15 AM 80.6 °F 82.7 °F 66.2 °F 61% 29.83 in 10.0 mi South 18.4 mph 27.6 mph N/A   Scattered Clouds
11:35 AM 82.4 °F 84.6 °F 66.2 °F 58% 29.83 in 10.0 mi South 19.6 mph 27.6 mph N/A   Mostly Cloudy
11:55 AM 80.6 °F 82.7 °F 66.2 °F 61% 29.82 in 10.0 mi South 17.3 mph 21.9 mph N/A   Mostly Cloudy
12:15 PM 82.4 °F 84.6 °F 66.2 °F 58% 29.82 in 10.0 mi South 13.8 mph 27.6 mph N/A   Mostly Cloudy
12:35 PM 82.4 °F 84.6 °F 66.2 °F 58% 29.81 in 10.0 mi South 15.0 mph - N/A   Mostly Cloudy
12:55 PM 82.4 °F 85.4 °F 68.0 °F 62% 29.81 in 9.0 mi South 17.3 mph 27.6 mph N/A   Scattered Clouds
1:15 PM 82.4 °F 84.6 °F 66.2 °F 58% 29.80 in 9.0 mi South 16.1 mph 26.5 mph N/A   Mostly Cloudy
1:35 PM 82.4 °F 84.6 °F 66.2 °F 58% 29.80 in 10.0 mi South 17.3 mph 24.2 mph N/A   Mostly Cloudy
1:55 PM 82.4 °F 84.6 °F 66.2 °F 58% 29.80 in 10.0 mi South 15.0 mph 27.6 mph N/A   Scattered Clouds
2:15 PM 84.2 °F 86.6 °F 66.2 °F 55% 29.80 in 10.0 mi South 17.3 mph 25.3 mph N/A   Scattered Clouds
2:35 PM 84.2 °F 86.6 °F 66.2 °F 55% 29.80 in 10.0 mi South 15.0 mph 25.3 mph N/A   Mostly Cloudy
2:55 PM 84.2 °F 86.6 °F 66.2 °F 55% 29.79 in 10.0 mi South 15.0 mph 24.2 mph N/A   Mostly Cloudy
3:15 PM 84.2 °F 86.6 °F 66.2 °F 55% 29.78 in 10.0 mi South 13.8 mph 21.9 mph N/A   Mostly Cloudy
3:35 PM 84.2 °F 86.6 °F 66.2 °F 55% 29.78 in 9.0 mi South 11.5 mph 20.7 mph N/A   Mostly Cloudy
3:55 PM 84.2 °F 86.6 °F 66.2 °F 55% 29.77 in 10.0 mi South 16.1 mph 23.0 mph N/A   Mostly Cloudy
4:15 PM 84.2 °F 86.6 °F 66.2 °F 55% 29.76 in 10.0 mi South 15.0 mph 19.6 mph N/A   Partly Cloudy
4:35 PM 84.2 °F 85.6 °F 64.4 °F 51% 29.75 in 10.0 mi South 17.3 mph 24.2 mph N/A   Scattered Clouds
4:55 PM 84.2 °F 86.6 °F 66.2 °F 55% 29.75 in 10.0 mi South 12.7 mph 25.3 mph N/A   Partly Cloudy
5:15 PM 84.2 °F 85.6 °F 64.4 °F 51% 29.74 in 9.0 mi South 16.1 mph 24.2 mph N/A   Partly Cloudy
5:35 PM 84.2 °F 86.6 °F 66.2 °F 55% 29.74 in 10.0 mi South 9.2 mph 20.7 mph N/A   Partly Cloudy
5:55 PM 84.2 °F 86.6 °F 66.2 °F 55% 29.73 in 10.0 mi South 11.5 mph 24.2 mph N/A   Partly Cloudy
6:15 PM 84.2 °F 86.6 °F 66.2 °F 55% 29.71 in 10.0 mi SSE 13.8 mph 19.6 mph N/A   Partly Cloudy
6:35 PM 84.2 °F 86.6 °F 66.2 °F 55% 29.70 in 10.0 mi South 11.5 mph 19.6 mph N/A   Clear
6:55 PM 82.4 °F 84.6 °F 66.2 °F 58% 29.71 in 9.0 mi South 17.3 mph 23.0 mph N/A   Clear
7:15 PM 82.4 °F 84.6 °F 66.2 °F 58% 29.72 in 10.0 mi South 12.7 mph - N/A   Clear
7:35 PM 82.4 °F 84.6 °F 66.2 °F 58% 29.72 in 10.0 mi South 10.4 mph - N/A   Clear
7:55 PM 80.6 °F 82.3 °F 64.4 °F 58% 29.72 in 10.0 mi South 15.0 mph 18.4 mph N/A   Clear
8:15 PM 80.6 °F 82.7 °F 66.2 °F 61% 29.72 in 10.0 mi South 9.2 mph - N/A   Clear
8:35 PM 80.6 °F 82.3 °F 64.4 °F 58% 29.72 in 10.0 mi SSE 12.7 mph - N/A   Clear
8:55 PM 80.6 °F 82.3 °F 64.4 °F 58% 29.73 in 10.0 mi South 11.5 mph - N/A   Clear
9:15 PM 78.8 °F - 64.4 °F 61% 29.74 in 10.0 mi SSE 8.1 mph - N/A   Clear
9:35 PM 78.8 °F - 64.4 °F 61% 29.75 in 10.0 mi SSE 6.9 mph - N/A   Clear
9:55 PM 77.0 °F - 66.2 °F 69% 29.75 in 10.0 mi SE 11.5 mph - N/A   Clear
10:15 PM 77.0 °F - 66.2 °F 69% 29.75 in 10.0 mi SSE 10.4 mph - N/A   Clear
10:35 PM 77.0 °F - 66.2 °F 69% 29.76 in 10.0 mi SSE 10.4 mph - N/A   Clear
10:55 PM 77.0 °F - 66.2 °F 69% 29.77 in 10.0 mi SSE 10.4 mph - N/A   Clear
11:15 PM 75.2 °F - 66.2 °F 73% 29.78 in 10.0 mi SSE 10.4 mph - N/A   Clear
11:35 PM 75.2 °F - 66.2 °F 73% 29.78 in 10.0 mi SSE 11.5 mph - N/A   Clear
11:55 PM 75.2 °F - 66.2 °F 73% 29.78 in 10.0 mi SSE 10.4 mph - N/A   Clear